Location: Montbazon
(47.2835°N, 0.6999°E)
Time: 18:03:25
(UTC+00:00)

Cosmos 2016 Rocket - Pass Details

Date: 08 November 2025
Orbit: 946 x 999 km, 83.0° (Epoch: 10 December)

Event Time Altitude Azimuth Distance (km) Brightness Sun altitude
Rises 05:45:32 0° 345° (NNW) 3,732 6.8 -11.4°
Reaches altitude 10° 05:48:13 10° 338° (NNW) 2,779 6.1 -10.9°
Maximum altitude 05:54:05 40° 272° (W) 1,433 4.4 -10.0°
Drops below altitude 10° 05:59:54 10° 205° (SSW) 2,751 6.3 -9.0°
Sets 06:02:33 0° 198° (SSW) 3,690 7.0 -8.6°
